STARLINK-4537 (53407 NORAD) Tracking and Keplerian Element Data

This shows tracking and keplerian element data for the satellite.

Feedback or suggestion? Click here.




ElementValue
Catalog53407
NameSTARLINK-4537
Epoch Orbit1648
Epoch Day325.33334491
Epoch Year2022
RAAN110.9129
Inclination53.2146
Eccentricity0.0001311
Argument of Perigee88.3165
Mean Anonmoly270.5017
Mean Motion15.08846229
Decay Rate1.727E-05
L11 53407U 22097V 22325.33334491 .00001727 00000+0 12653-3 0 9999
L22 53407 53.2146 110.9129 0001311 88.3165 270.5017 15.08846229 16488



Live tracking and technical data element details for STARLINK-4537 (NORAD 53407). STARLINK-4537 can be tracked NOW for your location showing map with azimuth and elevation plus other details from your city location.







IsCatalogInMostPopularTable: catalog: 53407, numindb: 7
Update: records affected: 1



GetName: 53407 STARLINK-4537

Hit Count: updated at: Thu, 08 Dec 2022 19:26:27 GMT